Voltar ao catálogo

STARLINK-33594

AtivoComunicaçõesVLEO
NORAD 62770·PAYLOAD·🇺🇸 United States

Lançado Jan 21, 2025 de Vandenberg Space Force Base

Loading…

Próximas Passagens (próximas 24 horas)

TLE

AtualizadoSource: CelesTrak SupGP

Época: Sep 15, 2026, 03:22 UTC

1 62770C 25015N   26258.14076389  .00008707  00000+0  28001-3 0  2589
2 62770  53.1566 160.7710 0001261  87.8202 178.3165 15.31696815    16

Acompanhe STARLINK-33594 em tempo real com AllMySat

Download on the App Store